Regional Weather Roundup
Issued by NWS Northern Indiana

Home | Current Version | Previous Version | Graphics & Text | Print | Product List | Glossary On
Versions: 1 2 3 4 5 6 7 8 9 10 11 12 13 14 15 16 17 18 19 20 21 22 23 24 25 26 27 28 29 30 31 32 33 34 35 36 37 38 39 40 41 42 43 44 45 46 47 48 49 50
000
ASUS43 KIWX 061400
RWRIWX

KIWX WEATHER ROUNDUP
NATIONAL WEATHER SERVICE NORTHERN INDIANA
1000 AM EDT FRI MAY 06 2016

NOTE: "FAIR" INDICATES FEW OR NO CLOUDS BELOW 12,000 FEET WITH NO
SIGNIFICANT WEATHER AND/OR OBSTRUCTIONS TO VISIBILITY.

* THESE STATIONS ARE NOT UNDER NWS QUALITY CONTROL. THEY ALSO MAY NOT
  REPORT WEATHER SUCH AS PRECIPITATION OR FOG.

INZ001>027-061500-
NORTHERN INDIANA

CITY           SKY/WX    TMP DP  RH WIND       PRES   REMARKS
GARY*          MOSUNNY   61  50  67 W5        30.01S
SOUTH BEND     MOSUNNY   56  44  64 W6        30.02R
ELKHART*       SUNNY     54  46  76 CALM      30.01S
GOSHEN         SUNNY     55  43  63 NW5       30.01S
ANGOLA*          N/A     55  43  62 CALM      29.99S
FORT WAYNE     MOSUNNY   55  42  61 NW8       30.01R
PERU/GRISSOM   SUNNY     55  43  62 NW7       30.01R

$$
INZ028>050-061500-
CENTRAL INDIANA

CITY           SKY/WX    TMP DP  RH WIND       PRES   REMARKS
LAFAYETTE      SUNNY     55  43  63 CALM      30.03R
KOKOMO*        SUNNY     55  43  62 NW6       30.01S
MUNCIE*        SUNNY     55  40  56 NW7       30.01R
INDIANAPOLIS   MOSUNNY   58  42  55 NW8       30.02R

$$
MIZ043>046-050>051-056>058-064>065-071>073-077>080-061500-
SOUTHWEST LOWER MICHIGAN

CITY           SKY/WX    TMP DP  RH WIND       PRES   REMARKS
BATTLE CREEK   SUNNY     55  38  52 NW6       30.00R
BENTON HARBOR  MOSUNNY   54  45  71 S3        30.00S
COLDWATER*     SUNNY     54  42  62 CALM      29.99S
HILLSDALE*     SUNNY     55  41  60 N5        29.99R
HOLLAND        SUNNY    N/A N/A N/A SW6       29.99S
GRAND RAPIDS   MOSUNNY   57  40  52 W7        29.99S
KALAMAZOO      SUNNY     58  40  51 CALM      30.00S
STURGIS*       SUNNY     56  40  54 N8        29.99S
THREE RIVERS*  FAIR      56  41  56 W3        30.01S

$$
OHZ001>008-015>018-024>025-061500-
NORTHWEST OHIO

CITY           SKY/WX    TMP DP  RH WIND       PRES   REMARKS
DEFIANCE       SUNNY     58  43  57 NW3       29.99R
FINDLAY        SUNNY     61  37  41 N7        29.97R
TOLEDO EXPRESS SUNNY     60  39  45 N6        29.98R
TOLEDO METCALF SUNNY     60  40  47 N8        29.98R
LIMA           SUNNY     57  40  52 N8        29.98R

$$
AND FOR LAKE MICHIGAN COASTAL AND OPEN LAKE BUOY OBSERVATIONS

STATION/POSITION TEMP    WIND        PRES    VSBY  WAVE
                 AIR SEA DIR/SP/G                  HT/PER
                 (F)     (DEG/KT/KT) (MB)    (MI)  (FT/S)
CALUMET HARBOR    54     230/  3/  5 1015.1S
MICHIGAN CITY     48     170/  6/  6   N/A
BURNS HARBOR      52     190/  4/  8 1016.6S
SAINT JOSEPH      49     160/  5/  7 1015.9S
SOUTH LAKE BUOY   44 40  190/  8/  8 1015.2          1
4 MI NW BRIDGMAN  47 48                N/A           1/ 4

$$
&&



USA.gov is the U.S. government's official web portal to all federal, state and local government web resources and services.